| time (UTC) | temp C | wind direction | speed KPH | gust KPH | rain 1hr cm | rain 24hr cm | rain mn cm | humidity % | barometer mb |
| 20260504170209 | 12 | 5 | 4.8 | 8.0 | 0.00 | 1.40 | 0.00 | 51 | 984.6 |
| 20260504160115 | 14 | 88 | 4.8 | 8.0 | 0.00 | 1.50 | 0.00 | 45 | 983.0 |
| 20260504151116 | 15 | 30 | 14.5 | 14.5 | 0.00 | 1.50 | 0.00 | 39 | 981.8 |
| 20260504150616 | 15 | 279 | 11.3 | 9.7 | 0.00 | 1.52 | 0.00 | 39 | 981.8 |
| 20260504150116 | 15 | 333 | 12.9 | 32.2 | 0.00 | 1.52 | 0.00 | 39 | 981.4 |
| 20260504141115 | 15 | 346 | 19.3 | 20.9 | 0.00 | 1.52 | 1.52 | 40 | 980.4 |
| 20260504140615 | 15 | 6 | 8.0 | 9.7 | 0.00 | 1.55 | 1.52 | 40 | 980.4 |
| 20260504140116 | 15 | 3 | 8.0 | 12.9 | 0.00 | 1.55 | 1.52 | 40 | 980.1 |
| 20260504130615 | 16 | 7 | 4.8 | 3.2 | 0.00 | 1.55 | 1.52 | 40 | 979.0 |
| 20260504130117 | 16 | 272 | 9.7 | 11.3 | 0.00 | 1.55 | 1.52 | 39 | 978.7 |
| 20260504120115 | 16 | 308 | 11.3 | 14.5 | 0.00 | 1.55 | 1.52 | 39 | 977.2 |
| 20260504110616 | 17 | 356 | 14.5 | 16.1 | 0.00 | 1.55 | 1.52 | 36 | 975.8 |
| 20260504110115 | 17 | 20 | 11.3 | 11.3 | 0.00 | 1.55 | 1.52 | 36 | 975.3 |
| 20260504100116 | 18 | 326 | 25.7 | 33.8 | 0.00 | 1.55 | 1.52 | 39 | 973.9 |
| 20260504090116 | 20 | 357 | 24.1 | 32.2 | 0.00 | 1.55 | 1.52 | 39 | 972.0 |
| 20260504081616 | 22 | 0 | 27.4 | 32.2 | 0.00 | 1.55 | 1.52 | 37 | 971.0 |
| 20260504081116 | 22 | 0 | 27.4 | 35.4 | 0.00 | 1.55 | 1.52 | 37 | 970.6 |
| 20260504080615 | 23 | 328 | 25.7 | 29.0 | 0.00 | 1.55 | 1.52 | 36 | 970.6 |
| 20260504080116 | 24 | 338 | 22.5 | 25.7 | 0.00 | 1.55 | 1.52 | 34 | 970.6 |
| 20260504070116 | 28 | 227 | 11.3 | 12.9 | 0.00 | 1.55 | 1.52 | 24 | 968.8 |
| 20260504060116 | 28 | 76 | 9.7 | 9.7 | 0.00 | 1.55 | 1.52 | 19 | 967.7 |
| 20260504050615 | 29 | 201 | 14.5 | 19.3 | 0.00 | 1.55 | 1.52 | 22 | 967.3 |
| 20260504050115 | 30 | 270 | 11.3 | 14.5 | 0.00 | 1.55 | 1.52 | 21 | 967.5 |
| 20260504045617 | 29 | 345 | 11.3 | 14.5 | 0.00 | 1.55 | 1.52 | 22 | 967.5 |
| 20260504045117 | 30 | 97 | 11.3 | 14.5 | 0.00 | 1.55 | 1.52 | 21 | 967.5 |
| 20260504044617 | 30 | 270 | 9.7 | 9.7 | 0.00 | 1.55 | 1.52 | 21 | 967.3 |
| 20260504044117 | 29 | 240 | 14.5 | 14.5 | 0.00 | 1.55 | 1.52 | 21 | 967.3 |
| 20260504043616 | 30 | 202 | 20.9 | 24.1 | 0.00 | 1.55 | 1.52 | 22 | 967.3 |
| 20260504043116 | 30 | 180 | 22.5 | 25.7 | 0.00 | 1.55 | 1.52 | 22 | 967.3 |
| 20260504042616 | 30 | 163 | 11.3 | 20.9 | 0.00 | 1.55 | 1.52 | 23 | 967.4 |
| 20260504042116 | 30 | 229 | 11.3 | 16.1 | 0.00 | 1.55 | 1.52 | 23 | 967.4 |
| 20260504041616 | 30 | 263 | 9.7 | 16.1 | 0.00 | 1.55 | 1.52 | 24 | 967.4 |
| 20260504041116 | 29 | 224 | 14.5 | 20.9 | 0.00 | 1.55 | 1.52 | 24 | 967.1 |
| 20260504040615 | 30 | 205 | 12.9 | 12.9 | 0.00 | 1.55 | 1.52 | 25 | 967.1 |
| 20260504040115 | 30 | 225 | 16.1 | 22.5 | 0.00 | 1.55 | 1.52 | 24 | 967.0 |
| 20260504035615 | 30 | 180 | 14.5 | 25.7 | 0.00 | 1.55 | 1.52 | 23 | 967.0 |
| 20260504035117 | 30 | 180 | 12.9 | 16.1 | 0.00 | 1.55 | 1.52 | 23 | 967.0 |
| 20260504034617 | 30 | 145 | 16.1 | 24.1 | 0.00 | 1.55 | 1.52 | 24 | 967.0 |
| 20260504034116 | 30 | 184 | 12.9 | 16.1 | 0.00 | 1.55 | 1.52 | 25 | 967.0 |
| 20260504033615 | 30 | 202 | 11.3 | 16.1 | 0.00 | 1.55 | 1.52 | 25 | 967.2 |
| 20260504033117 | 30 | 176 | 14.5 | 16.1 | 0.00 | 1.55 | 1.52 | 28 | 967.2 |
| 20260504032617 | 30 | 163 | 12.9 | 16.1 | 0.00 | 1.55 | 1.52 | 28 | 967.4 |
| 20260504032116 | 30 | 224 | 16.1 | 16.1 | 0.00 | 1.55 | 1.52 | 26 | 967.4 |
| 20260504031616 | 30 | 202 | 19.3 | 22.5 | 0.00 | 1.55 | 1.52 | 28 | 967.4 |
| 20260504031116 | 30 | 184 | 9.7 | 9.7 | 0.00 | 1.55 | 1.52 | 28 | 967.5 |
| 20260504030616 | 30 | 208 | 14.5 | 16.1 | 0.00 | 1.55 | 1.52 | 30 | 967.5 |
| 20260504030116 | 29 | 191 | 19.3 | 19.3 | 0.00 | 1.55 | 1.52 | 28 | 967.7 |
| 20260504025616 | 30 | 224 | 14.5 | 14.5 | 0.00 | 1.55 | 1.52 | 29 | 967.7 |
| 20260504025115 | 29 | 180 | 11.3 | 9.7 | 0.00 | 1.55 | 1.52 | 29 | 967.7 |
| 20260504024615 | 29 | 204 | 16.1 | 16.1 | 0.00 | 1.55 | 1.52 | 30 | 967.8 |
| 20260504024115 | 29 | 182 | 24.1 | 25.7 | 0.00 | 1.55 | 1.52 | 32 | 967.8 |
| 20260504023616 | 29 | 225 | 25.7 | 29.0 | 0.00 | 1.55 | 1.52 | 33 | 968.1 |
| 20260504023116 | 30 | 208 | 11.3 | 19.3 | 0.00 | 1.55 | 1.52 | 35 | 968.1 |
| 20260504022616 | 30 | 178 | 11.3 | 20.9 | 0.00 | 1.55 | 1.52 | 35 | 968.0 |
| 20260504022115 | 29 | 171 | 14.5 | 22.5 | 0.00 | 1.55 | 1.52 | 35 | 968.0 |
| 20260504021615 | 28 | 211 | 12.9 | 14.5 | 0.00 | 1.55 | 1.52 | 36 | 968.0 |
| 20260504021117 | 29 | 188 | 14.5 | 19.3 | 0.00 | 1.55 | 1.52 | 36 | 968.3 |
| 20260504020617 | 29 | 188 | 12.9 | 19.3 | 0.00 | 1.55 | 1.52 | 36 | 968.3 |
| 20260504020117 | 29 | 243 | 9.7 | 12.9 | 0.00 | 1.55 | 1.52 | 38 | 968.4 |
| 20260504015616 | 28 | 48 | 8.0 | 9.7 | 0.00 | 1.55 | 1.52 | 43 | 968.4 |
| 20260504015116 | 27 | 213 | 4.8 | 9.7 | 0.00 | 1.55 | 1.52 | 55 | 968.4 |
| 20260504014616 | 27 | 112 | 4.8 | 8.0 | 0.00 | 1.55 | 1.52 | 57 | 968.4 |
| 20260504014116 | 27 | 322 | 3.2 | 4.8 | 0.00 | 1.55 | 1.52 | 60 | 968.4 |
| 20260504013615 | 26 | 127 | 8.0 | 11.3 | 0.00 | 1.55 | 1.52 | 60 | 968.9 |
| 20260504013116 | 26 | 347 | 8.0 | 4.8 | 0.00 | 1.55 | 1.52 | 63 | 968.9 |
| 20260504012616 | 26 | 83 | 4.8 | 4.8 | 0.00 | 1.55 | 1.52 | 65 | 969.3 |
| 20260504012116 | 25 | 8 | 4.8 | 11.3 | 0.00 | 1.55 | 1.52 | 67 | 969.3 |
| 20260504011616 | 25 | 38 | 4.8 | 9.7 | 0.00 | 1.55 | 1.52 | 66 | 969.3 |
| 20260504011115 | 25 | 22 | 4.8 | 4.8 | 0.00 | 1.55 | 1.52 | 66 | 969.4 |
| 20260504010615 | 24 | 343 | 8.0 | 9.7 | 0.00 | 1.55 | 1.52 | 70 | 969.4 |
| 20260504010115 | 23 | 329 | 8.0 | 8.0 | 0.00 | 1.55 | 1.52 | 71 | 969.4 |
| 20260504005616 | 24 | 349 | 8.0 | 9.7 | 0.00 | 1.55 | 1.52 | 70 | 969.4 |
| 20260504005116 | 23 | 126 | 4.8 | 4.8 | 0.00 | 1.55 | 1.52 | 72 | 969.4 |
| 20260504004615 | 23 | 295 | 4.8 | 4.8 | 0.00 | 1.55 | 1.52 | 72 | 969.5 |
| 20260504004115 | 22 | 331 | 4.8 | 8.0 | 0.00 | 1.55 | 1.52 | 73 | 969.5 |
| 20260504003615 | 23 | 83 | 4.8 | 8.0 | 0.00 | 1.55 | 1.52 | 73 | 970.2 |
| 20260504003116 | 22 | 68 | 4.8 | 8.0 | 0.00 | 1.55 | 1.52 | 74 | 970.2 |
| 20260504002616 | 22 | 357 | 4.8 | 8.0 | 0.00 | 1.55 | 1.52 | 75 | 970.4 |
| 20260504002117 | 22 | 87 | 8.0 | 9.7 | 0.00 | 1.55 | 1.52 | 76 | 970.4 |
| 20260504001616 | 21 | 329 | 8.0 | 9.7 | 0.00 | 1.55 | 1.52 | 80 | 970.4 |
| 20260504001116 | 21 | 203 | 1.6 | 1.6 | 0.03 | 1.55 | 1.52 | 78 | 970.4 |
| 20260504000617 | 21 | 322 | 4.8 | 4.8 | 0.03 | 1.55 | 1.52 | 78 | 970.4 |
| 20260504000117 | 21 | 341 | 3.2 | 8.0 | 0.03 | 1.55 | 1.52 | 79 | 970.5 |
| 20260503235617 | 21 | 324 | 4.8 | 9.7 | 0.03 | 1.55 | 1.52 | 79 | 970.5 |
| 20260503235116 | 21 | 138 | 3.2 | 1.6 | 0.03 | 1.55 | 1.52 | 80 | 970.5 |
| 20260503234616 | 20 | 86 | 3.2 | 3.2 | 0.03 | 1.55 | 1.52 | 81 | 970.6 |
| 20260503234116 | 20 | 240 | 1.6 | 3.2 | 0.03 | 1.55 | 1.52 | 83 | 970.6 |
| 20260503233616 | 20 | 180 | 1.6 | 3.2 | 0.03 | 1.55 | 1.52 | 85 | 970.6 |
| 20260503233117 | 19 | 328 | 3.2 | 3.2 | 0.03 | 1.55 | 1.52 | 86 | 970.6 |
| 20260503232617 | 18 | 284 | 1.6 | 3.2 | 0.03 | 1.55 | 1.52 | 87 | 970.7 |
| 20260503232115 | 18 | 269 | 1.6 | 1.6 | 0.03 | 1.55 | 1.52 | 88 | 970.7 |
| 20260503231615 | 18 | 193 | 3.2 | 4.8 | 0.03 | 1.55 | 1.52 | 89 | 970.7 |
| 20260503231115 | 18 | 202 | 3.2 | 3.2 | 0.03 | 1.52 | 1.50 | 88 | 970.6 |
| 20260503230617 | 18 | 276 | 0.0 | 1.6 | 0.03 | 1.52 | 1.50 | 87 | 970.6 |
| 20260503230117 | 18 | 230 | 0.0 | 0.0 | 0.03 | 1.52 | 1.50 | 89 | 970.4 |
| 20260503225616 | 18 | 134 | 3.2 | 3.2 | 0.03 | 1.52 | 1.50 | 91 | 970.4 |
| 20260503225116 | 18 | 67 | 0.0 | 0.0 | 0.03 | 1.52 | 1.50 | 90 | 970.4 |
| 20260503224616 | 17 | 180 | 3.2 | 3.2 | 0.05 | 1.52 | 1.50 | 91 | 970.4 |
| 20260503224116 | 18 | 90 | 3.2 | 3.2 | 0.08 | 1.52 | 1.50 | 92 | 970.4 |
| 20260503223616 | 17 | 202 | 3.2 | 1.6 | 0.10 | 1.52 | 1.50 | 92 | 970.3 |
| 20260503223116 | 17 | 110 | 3.2 | 3.2 | 0.13 | 1.52 | 1.50 | 93 | 970.3 |
| 20260503222615 | 17 | 113 | 3.2 | 3.2 | 0.13 | 1.52 | 1.50 | 93 | 970.3 |
| 20260503222115 | 17 | 112 | 3.2 | 1.6 | 0.13 | 1.52 | 1.50 | 94 | 970.3 |
| 20260503221616 | 17 | 110 | 0.0 | 0.0 | 0.13 | 1.52 | 1.50 | 95 | 970.3 |
| 20260503221116 | 17 | 94 | 3.2 | 3.2 | 0.10 | 1.50 | 1.47 | 95 | 970.1 |
| 20260503220616 | 17 | 173 | 3.2 | 3.2 | 0.10 | 1.50 | 1.47 | 95 | 970.1 |
| 20260503220115 | 17 | 145 | 3.2 | 3.2 | 0.10 | 1.50 | 1.47 | 95 | 970.0 |
| 20260503215615 | 17 | 117 | 1.6 | 3.2 | 0.10 | 1.50 | 1.47 | 97 | 970.0 |
| 20260503215116 | 16 | 213 | 0.0 | 0.0 | 0.10 | 1.50 | 1.47 | 96 | 970.0 |
| 20260503214616 | 16 | 206 | 1.6 | 1.6 | 0.08 | 1.47 | 1.45 | 97 | 969.9 |
| 20260503214116 | 16 | 157 | 3.2 | 3.2 | 0.05 | 1.45 | 1.42 | 97 | 969.9 |
| 20260503213615 | 16 | 122 | 3.2 | 3.2 | 0.03 | 1.42 | 1.40 | 97 | 970.0 |
| 20260503213115 | 16 | 197 | 3.2 | 3.2 | 0.00 | 1.40 | 1.37 | 97 | 970.0 |
| 20260503212615 | 16 | 116 | 3.2 | 3.2 | 0.00 | 1.40 | 1.37 | 98 | 969.8 |
| 20260503212117 | 16 | 185 | 3.2 | 4.8 | 0.00 | 1.40 | 1.37 | 98 | 969.8 |
| 20260503211617 | 16 | 198 | 3.2 | 3.2 | 0.03 | 1.40 | 1.37 | 99 | 969.8 |
| 20260503211117 | 16 | 195 | 1.6 | 1.6 | 0.03 | 1.40 | 1.37 | 99 | 969.7 |
| 20260503210616 | 16 | 116 | 1.6 | 3.2 | 0.03 | 1.40 | 1.37 | 99 | 969.7 |
| 20260503210116 | 16 | 180 | 1.6 | 1.6 | 0.03 | 1.40 | 1.37 | 99 | 969.7 |
| 20260503205616 | 16 | 185 | 1.6 | 1.6 | 0.03 | 1.40 | 1.37 | 99 | 969.7 |
| 20260503205022 | 16 | 163 | 1.6 | 1.6 | 0.03 | 1.40 | 1.37 | 99 | 969.5 |
| 20260503204522 | 15 | 180 | 0.0 | 0.0 | 0.03 | 1.40 | 1.37 | 99 | 969.5 |
| 20260503204022 | 15 | 174 | 0.0 | 0.0 | 0.03 | 1.40 | 1.37 | 99 | 969.5 |
| 20260503203521 | 15 | 212 | 0.0 | 0.0 | 0.05 | 1.40 | 1.37 | 99 | 969.7 |
| 20260503203021 | 15 | 145 | 0.0 | 0.0 | 0.05 | 1.40 | 1.37 | 99 | 969.7 |
| 20260503202521 | 15 | 127 | 1.6 | 1.6 | 0.05 | 1.40 | 1.37 | 99 | 969.8 |
| 20260503202021 | 15 | 147 | 1.6 | 1.6 | 0.05 | 1.40 | 1.37 | 99 | 969.8 |
| 20260503201520 | 15 | 270 | 1.6 | 1.6 | 0.03 | 1.37 | 1.35 | 99 | 969.7 |
| 20260503201020 | 15 | 224 | 1.6 | 1.6 | 0.08 | 1.37 | 1.35 | 99 | 969.6 |
| 20260503200522 | 15 | 279 | 3.2 | 3.2 | 0.08 | 1.37 | 1.35 | 99 | 969.6 |
| 20260503200022 | 15 | 332 | 3.2 | 3.2 | 0.13 | 1.37 | 1.35 | 99 | 969.7 |
| 20260503195522 | 15 | 300 | 3.2 | 3.2 | 0.15 | 1.37 | 1.35 | 99 | 969.7 |
| 20260503195021 | 15 | 211 | 0.0 | 0.0 | 0.25 | 1.37 | 1.35 | 99 | 970.1 |
| 20260503194521 | 15 | 202 | 0.0 | 0.0 | 0.30 | 1.37 | 1.35 | 99 | 970.1 |
| 20260503194021 | 15 | 276 | 1.6 | 1.6 | 0.36 | 1.37 | 1.35 | 99 | 970.1 |
| 20260503193521 | 15 | 346 | 4.8 | 4.8 | 0.38 | 1.35 | 1.32 | 99 | 969.9 |
| 20260503193020 | 15 | 258 | 1.6 | 1.6 | 0.46 | 1.35 | 1.32 | 99 | 969.9 |
| 20260503192520 | 15 | 352 | 3.2 | 3.2 | 0.61 | 1.35 | 1.32 | 99 | 970.2 |
| 20260503192022 | 15 | 279 | 1.6 | 1.6 | 0.69 | 1.35 | 1.32 | 99 | 970.2 |
| 20260503191522 | 15 | 180 | 0.0 | 0.0 | 0.74 | 1.35 | 1.32 | 99 | 970.2 |
| 20260503191022 | 15 | 327 | 1.6 | 1.6 | 0.74 | 1.30 | 1.27 | 99 | 970.6 |
| 20260503190521 | 15 | 8 | 3.2 | 3.2 | 0.76 | 1.30 | 1.27 | 99 | 970.6 |
| 20260503190021 | 15 | 338 | 1.6 | 3.2 | 0.74 | 1.24 | 1.22 | 99 | 970.3 |
| 20260503185521 | 15 | 219 | 0.0 | 0.0 | 0.74 | 1.22 | 1.19 | 99 | 970.3 |
| 20260503185021 | 15 | 141 | 3.2 | 4.8 | 0.69 | 1.12 | 1.09 | 99 | 971.0 |
| 20260503184521 | 15 | 139 | 3.2 | 3.2 | 0.66 | 1.07 | 1.04 | 99 | 971.0 |
| 20260503184020 | 15 | 99 | 4.8 | 8.0 | 0.66 | 1.02 | 0.99 | 99 | 971.0 |
| 20260503183522 | 15 | 144 | 3.2 | 4.8 | 0.64 | 0.97 | 0.94 | 99 | 971.4 |
| 20260503183022 | 15 | 159 | 3.2 | 4.8 | 0.58 | 0.89 | 0.86 | 99 | 971.4 |
| 20260503182522 | 15 | 100 | 3.2 | 3.2 | 0.46 | 0.74 | 0.71 | 99 | 971.5 |
| 20260503182022 | 15 | 13 | 0.0 | 3.2 | 0.41 | 0.66 | 0.64 | 99 | 971.5 |
| 20260503181521 | 15 | 95 | 3.2 | 3.2 | 0.38 | 0.61 | 0.58 | 99 | 971.5 |
| 20260503181021 | 15 | 68 | 3.2 | 3.2 | 0.36 | 0.56 | 0.53 | 98 | 971.9 |
| 20260503180521 | 15 | 148 | 3.2 | 8.0 | 0.36 | 0.53 | 0.51 | 98 | 971.9 |
| 20260503180021 | 15 | 158 | 3.2 | 3.2 | 0.36 | 0.51 | 0.48 | 98 | 972.1 |
| 20260503175521 | 15 | 118 | 3.2 | 3.2 | 0.36 | 0.48 | 0.46 | 98 | 972.1 |
| 20260503175022 | 15 | 124 | 3.2 | 3.2 | 0.30 | 0.43 | 0.41 | 98 | 972.5 |
| 20260503174522 | 15 | 106 | 1.6 | 1.6 | 0.30 | 0.41 | 0.38 | 98 | 972.5 |
| 20260503174022 | 15 | 202 | 0.0 | 0.0 | 0.28 | 0.36 | 0.33 | 97 | 972.5 |
| 20260503173522 | 15 | 202 | 0.0 | 0.0 | 0.25 | 0.33 | 0.30 | 97 | 972.6 |
| 20260503173021 | 15 | 197 | 0.0 | 0.0 | 0.23 | 0.30 | 0.28 | 97 | 972.6 |
| 20260503172521 | 15 | 148 | 1.6 | 3.2 | 0.23 | 0.28 | 0.25 | 98 | 972.8 |
| 20260503172021 | 15 | 150 | 1.6 | 1.6 | 0.20 | 0.25 | 0.23 | 98 | 972.8 |
| 20260503171521 | 15 | 116 | 3.2 | 3.2 | 0.18 | 0.23 | 0.20 | 97 | 972.8 |
| 20260503171021 | 15 | 258 | 0.0 | 0.0 | 0.15 | 0.20 | 0.18 | 96 | 972.9 |